Location: Caltech
(34.1382°N, 118.1253°W)
Time: 09:52:56
(UTC-07:00)

Cosmos 1980 Rocket - Visible Passes

Search period start: 25 May 2016 00:00
Search period end: 04 June 2016 00:00
Orbit: 831 x 849 km, 71.0° (Epoch: 24 May)

Date Brightness Start Highest point End Pass type
(mag) Time Alt. Az. Time Alt. Az. Time Alt. Az.
25 May 4.8 01:22:56 10° NNE 01:25:06 12° NE 01:27:16 10° ENE visible
25 May 2.0 03:04:08 10° NNW 03:09:48 85° WSW 03:10:49 61° S visible
26 May 4.8 01:07:41 10° NE 01:09:23 11° NE 01:11:05 10° ENE visible
26 May 2.0 02:48:29 10° NNW 02:54:09 89° ENE 02:54:28 80° SSE visible
27 May 4.9 00:52:40 10° NE 00:53:40 10° NE 00:54:41 10° ENE visible
27 May 2.1 02:32:49 10° NNW 02:38:18 82° NNE 02:38:18 82° NNE visible
28 May 2.3 02:17:11 10° NNW 02:22:16 70° NNE 02:22:16 70° NNE visible
29 May 2.5 02:01:32 10° NNW 02:06:20 62° NNE 02:06:20 62° NNE visible
30 May 2.7 01:45:53 10° NNW 01:50:30 56° NNE 01:50:30 56° NNE visible
31 May 2.9 01:30:16 10° NNW 01:34:43 52° NNE 01:34:43 52° NNE visible
31 May 4.5 03:16:27 10° WNW 03:16:28 10° WNW 03:16:28 10° WNW visible
01 Jun 3.0 01:14:38 10° NNW 01:19:01 48° NNE 01:19:01 48° NNE visible
01 Jun 4.5 03:00:30 10° WNW 03:00:45 11° WNW 03:00:45 11° WNW visible
02 Jun 3.0 00:59:00 10° NNW 01:03:21 46° NNE 01:03:21 46° NNE visible
02 Jun 4.4 02:44:36 10° WNW 02:45:06 11° WNW 02:45:06 11° WNW visible
03 Jun 3.1 00:43:23 10° N 00:47:44 44° NNE 00:47:44 44° NNE visible
03 Jun 4.4 02:28:44 10° WNW 02:29:29 12° WNW 02:29:29 12° WNW visible
